• In Deutschland
  • Länderverzeichnis
  • Für 7 Tage
  • Wassertemperatur
  • Satellitenkarten
  • Wetterkarte
  • Widgets
  • user-avatar
    Anmelden

    Stündliche Wetter Oberkirch

    Heute, 20 Juli, Freitag

    Zeit Temperatur Niederschläge Wind Luftdruck Luftfeuchtigkeit
    00:00 +20°C° 0 mm 1 m/S 739 mmHg 67%
    01:00 +20°C° 0 mm 1 m/S 739 mmHg 69%
    02:00 +19°C° 0 mm 1 m/S 739 mmHg 71%
    03:00 +19°C° 0 mm 1 m/S 739 mmHg 73%
    04:00 +19°C° 0 mm 1 m/S 738 mmHg 75%
    05:00 +20°C° 0,1 mm 1 m/S 738 mmHg 75%
    06:00 +21°C° 0,1 mm 1 m/S 738 mmHg 74%
    07:00 +20°C° 0,1 mm 0 m/S 738 mmHg 74%
    08:00 +24°C° 0,5 mm 1 m/S 738 mmHg 69%
    09:00 +26°C° 0,5 mm 1 m/S 738 mmHg 64%
    10:00 +27°C° 0,5 mm 1 m/S 738 mmHg 59%
    11:00 +29°C° 0,3 mm 1 m/S 738 mmHg 54%
    12:00 +30°C° 0,3 mm 1 m/S 738 mmHg 49%
    13:00 +31°C° 0,3 mm 1 m/S 738 mmHg 45%
    14:00 +31°C° 0,2 mm 1 m/S 738 mmHg 45%
    15:00 +31°C° 0,2 mm 1 m/S 737 mmHg 46%
    16:00 +31°C° 0,2 mm 1 m/S 737 mmHg 46%
    17:00 +29°C° 0 mm 1 m/S 737 mmHg 51%
    18:00 +28°C° 0 mm 1 m/S 736 mmHg 56%
    19:00 +27°C° 0 mm 1 m/S 736 mmHg 61%
    20:00 +25°C° 0,6 mm 1 m/S 736 mmHg 66%
    21:00 +24°C° 0,6 mm 1 m/S 736 mmHg 72%
    22:00 +22°C° 0,6 mm 1 m/S 736 mmHg 77%
    23:00 +21°C° 0,3 mm 1 m/S 736 mmHg 80%

    Morgen, 21 Juli, Samstag

    Zeit Temperatur Niederschläge Wind Luftdruck Luftfeuchtigkeit
    00:00 +21°C° 0,3 mm 1 m/S 736 mmHg 83%
    01:00 +20°C° 0,3 mm 1 m/S 736 mmHg 86%
    02:00 +20°C° 0,3 mm 1 m/S 736 mmHg 87%
    03:00 +20°C° 0,3 mm 1 m/S 736 mmHg 88%
    04:00 +19°C° 0,3 mm 1 m/S 736 mmHg 89%
    05:00 +20°C° 0,2 mm 1 m/S 736 mmHg 88%
    06:00 +21°C° 0,2 mm 1 m/S 736 mmHg 86%
    07:00 +21°C° 0,2 mm 1 m/S 736 mmHg 84%
    08:00 +22°C° 0,4 mm 1 m/S 737 mmHg 79%
    09:00 +24°C° 0,4 mm 2 m/S 737 mmHg 74%
    10:00 +25°C° 0,4 mm 2 m/S 737 mmHg 69%
    11:00 +25°C° 1 mm 2 m/S 737 mmHg 70%
    12:00 +25°C° 1 mm 2 m/S 737 mmHg 70%
    13:00 +26°C° 1 mm 3 m/S 737 mmHg 71%
    14:00 +25°C° 1,5 mm 2 m/S 737 mmHg 75%
    15:00 +24°C° 1,5 mm 2 m/S 737 mmHg 78%
    16:00 +23°C° 1,5 mm 2 m/S 737 mmHg 81%
    17:00 +23°C° 0,4 mm 2 m/S 737 mmHg 84%
    18:00 +21°C° 0,4 mm 2 m/S 737 mmHg 86%
    19:00 +22°C° 0,4 mm 1 m/S 737 mmHg 89%
    20:00 +21°C° 0,1 mm 1 m/S 737 mmHg 90%
    21:00 +20°C° 0,1 mm 1 m/S 737 mmHg 91%
    22:00 +20°C° 0,1 mm 1 m/S 737 mmHg 92%
    23:00 +19°C° 0 mm 1 m/S 737 mmHg 92%

    übermorgen, 22 Juli, Sonntag

    Zeit Temperatur Niederschläge Wind Luftdruck Luftfeuchtigkeit
    00:00 +19°C° 0 mm 1 m/S 737 mmHg 93%
    01:00 +18°C° 0 mm 1 m/S 737 mmHg 93%
    02:00 +18°C° 0 mm 1 m/S 737 mmHg 93%
    03:00 +18°C° 0 mm 1 m/S 737 mmHg 94%
    04:00 +18°C° 0 mm 1 m/S 737 mmHg 94%
    05:00 +18°C° 0 mm 1 m/S 737 mmHg 92%
    06:00 +19°C° 0 mm 1 m/S 737 mmHg 91%
    07:00 +20°C° 0 mm 1 m/S 737 mmHg 89%
    08:00 +21°C° 0 mm 1 m/S 737 mmHg 82%
    09:00 +23°C° 0 mm 1 m/S 737 mmHg 75%
    10:00 +25°C° 0 mm 2 m/S 737 mmHg 68%
    11:00 +26°C° 0,1 mm 2 m/S 737 mmHg 64%
    12:00 +27°C° 0,1 mm 2 m/S 737 mmHg 60%
    13:00 +28°C° 0,1 mm 2 m/S 737 mmHg 57%
    14:00 +27°C° 0,7 mm 2 m/S 737 mmHg 60%
    15:00 +27°C° 0,7 mm 2 m/S 736 mmHg 64%
    16:00 +27°C° 0,7 mm 3 m/S 736 mmHg 68%
    17:00 +26°C° 0,6 mm 2 m/S 736 mmHg 72%
    18:00 +25°C° 0,6 mm 2 m/S 737 mmHg 75%
    19:00 +25°C° 0,6 mm 2 m/S 737 mmHg 79%
    20:00 +23°C° 0,6 mm 1 m/S 737 mmHg 82%
    21:00 +22°C° 0,6 mm 1 m/S 737 mmHg 85%
    22:00 +20°C° 0,6 mm 1 m/S 738 mmHg 89%
    23:00 +20°C° 0,1 mm 1 m/S 738 mmHg 89%

    23 Juli, Montag

    Zeit Temperatur Niederschläge Wind Luftdruck Luftfeuchtigkeit
    00:00 +20°C° 0,1 mm 1 m/S 738 mmHg 90%
    01:00 +19°C° 0,1 mm 1 m/S 738 mmHg 91%
    02:00 +19°C° 0 mm 1 m/S 738 mmHg 92%
    03:00 +16°C° 0 mm 0 m/S 738 mmHg 92%
    04:00 +16°C° 0 mm 0 m/S 738 mmHg 92%
    05:00 +17°C° 0 mm 0 m/S 738 mmHg 90%
    06:00 +18°C° 0 mm 0 m/S 738 mmHg 88%
    07:00 +19°C° 0 mm 0 m/S 739 mmHg 85%
    08:00 +23°C° 0,1 mm 1 m/S 739 mmHg 78%
    09:00 +24°C° 0,1 mm 1 m/S 739 mmHg 71%
    10:00 +26°C° 0,1 mm 1 m/S 739 mmHg 64%
    11:00 +27°C° 0,2 mm 1 m/S 739 mmHg 60%
    12:00 +28°C° 0,2 mm 2 m/S 739 mmHg 55%
    13:00 +29°C° 0,2 mm 2 m/S 739 mmHg 51%
    14:00 +29°C° 0,1 mm 2 m/S 739 mmHg 51%
    15:00 +29°C° 0,1 mm 2 m/S 738 mmHg 51%
    16:00 +29°C° 0,1 mm 2 m/S 738 mmHg 51%
    17:00 +28°C° 0 mm 2 m/S 738 mmHg 56%
    18:00 +27°C° 0 mm 1 m/S 738 mmHg 61%
    19:00 +26°C° 0 mm 1 m/S 738 mmHg 66%
    20:00 +25°C° 0 mm 1 m/S 738 mmHg 70%
    21:00 +23°C° 0 mm 1 m/S 738 mmHg 74%
    22:00 +21°C° 0 mm 1 m/S 738 mmHg 78%
    23:00 +21°C° 0 mm 1 m/S 738 mmHg 79%

    24 Juli, Dienstag

    Zeit Temperatur Niederschläge Wind Luftdruck Luftfeuchtigkeit
    00:00 +20°C° 0 mm 1 m/S 738 mmHg 81%
    01:00 +20°C° 0 mm 1 m/S 738 mmHg 82%
    02:00 +19°C° 0 mm 1 m/S 738 mmHg 83%
    03:00 +19°C° 0 mm 1 m/S 737 mmHg 83%
    04:00 +19°C° 0 mm 1 m/S 737 mmHg 84%
    05:00 +20°C° 0 mm 1 m/S 737 mmHg 81%
    06:00 +21°C° 0 mm 1 m/S 737 mmHg 78%
    07:00 +22°C° 0 mm 1 m/S 737 mmHg 74%
    08:00 +24°C° 0 mm 1 m/S 737 mmHg 67%
    09:00 +26°C° 0 mm 1 m/S 737 mmHg 59%
    10:00 +28°C° 0 mm 1 m/S 737 mmHg 52%
    11:00 +29°C° 0 mm 1 m/S 737 mmHg 48%
    12:00 +30°C° 0 mm 1 m/S 737 mmHg 45%
    13:00 +31°C° 0 mm 1 m/S 736 mmHg 41%
    14:00 +31°C° 0 mm 1 m/S 736 mmHg 42%
    15:00 +31°C° 0 mm 1 m/S 736 mmHg 42%
    16:00 +31°C° 0 mm 1 m/S 736 mmHg 42%
    17:00 +30°C° 0,1 mm 1 m/S 736 mmHg 48%
    18:00 +29°C° 0,1 mm 1 m/S 736 mmHg 54%
    19:00 +28°C° 0,1 mm 1 m/S 736 mmHg 60%
    20:00 +26°C° 0,1 mm 1 m/S 736 mmHg 64%
    21:00 +25°C° 0,1 mm 1 m/S 736 mmHg 67%
    22:00 +23°C° 0,1 mm 1 m/S 737 mmHg 71%
    23:00 +23°C° 0 mm 1 m/S 737 mmHg 72%

    25 Juli, Mittwoch

    Zeit Temperatur Niederschläge Wind Luftdruck Luftfeuchtigkeit
    00:00 +22°C° 0 mm 1 m/S 737 mmHg 74%
    01:00 +22°C° 0 mm 1 m/S 737 mmHg 76%
    02:00 +21°C° 0 mm 1 m/S 737 mmHg 77%
    03:00 +21°C° 0 mm 1 m/S 737 mmHg 79%
    04:00 +21°C° 0 mm 1 m/S 737 mmHg 80%
    05:00 +21°C° 0,1 mm 1 m/S 737 mmHg 80%
    06:00 +22°C° 0,1 mm 1 m/S 738 mmHg 79%
    07:00 +23°C° 0,1 mm 1 m/S 738 mmHg 78%
    08:00 +24°C° 0,4 mm 1 m/S 738 mmHg 74%
    09:00 +26°C° 0,4 mm 1 m/S 738 mmHg 70%
    10:00 +27°C° 0,4 mm 1 m/S 738 mmHg 66%
    11:00 +28°C° 0,6 mm 2 m/S 738 mmHg 63%
    12:00 +29°C° 0,6 mm 2 m/S 738 mmHg 60%
    13:00 +29°C° 0,6 mm 2 m/S 738 mmHg 57%
    14:00 +29°C° 0,5 mm 2 m/S 738 mmHg 57%
    15:00 +29°C° 0,5 mm 2 m/S 738 mmHg 57%
    16:00 +29°C° 0,5 mm 2 m/S 738 mmHg 57%
    17:00 +28°C° 0,4 mm 2 m/S 738 mmHg 62%
    18:00 +27°C° 0,4 mm 2 m/S 738 mmHg 67%
    19:00 +26°C° 0,4 mm 2 m/S 739 mmHg 71%
    20:00 +25°C° 0,2 mm 2 m/S 739 mmHg 77%
    21:00 +23°C° 0,2 mm 1 m/S 739 mmHg 82%
    22:00 +21°C° 0,2 mm 1 m/S 739 mmHg 87%
    23:00 +21°C° 0,1 mm 1 m/S 739 mmHg 89%
    Mehr zeigen